Retour au catalogue

FENGYUN 1C DEB

ActifSSO
NORAD 36224·DEBRIS·🇨🇳 China

Lancé May 10, 1999 depuis Taiyuan Satellite Launch Center

Loading…

Prochains Passages (prochaines 24 heures)

TLE

VieillissantSource: Space-Track

Époque: Sep 9, 2026, 08:38 UTC

1 36224U 99025DUZ 26252.36007830  .00000091  00000-0  68553-4 0  9997
2 36224  98.7438 298.8883 0113670 302.2661  56.7537 14.12877828682537

Suivez FENGYUN 1C DEB en temps réel avec AllMySat

Download on the App Store